This is the latest recevied weather packets stored in our database for station/object KY4GW. If no packets are shown the sender has not sent any weather packets the latest 10 day(s).
| Time | Temp. | Humidity | Pressure | Rain* | Wind** | Luminosity | Snow |
|---|---|---|---|---|---|---|---|
| 1777684555 | 9.44° C | 66% | 1018.6 hPa | 0 mm | - | 0 W/m² | - |
| 1777684252 | 10° C | 65% | 1018.6 hPa | 0 mm | - | 0 W/m² | - |
| 1777683949 | 10.56° C | 58% | 1018.6 hPa | 0 mm | - | 0 W/m² | - |
| 1777683645 | 10.56° C | 57% | 1018.6 hPa | 0 mm | - | 0 W/m² | - |
| 1777683343 | 10.56° C | 56% | 1018.6 hPa | 0 mm | - | 0 W/m² | - |
| 1777683041 | 10.56° C | 56% | 1018.6 hPa | 0 mm | - | 0 W/m² | - |
| 1777682737 | 10.56° C | 56% | 1018.3 hPa | 0 mm | - | 0 W/m² | - |
| 1777682433 | 11.11° C | 55% | 1018.3 hPa | 0 mm | - | 1 W/m² | - |
| 1777682131 | 11.11° C | 54% | 1018.3 hPa | 0 mm | - | 2 W/m² | - |
| 1777681828 | 11.67° C | 55% | 1018.3 hPa | 0 mm | - | 3 W/m² | - |
| 1777681524 | 11.67° C | 54% | 1018.3 hPa | 0 mm | - | 4 W/m² | - |
| 1777681222 | 11.67° C | 54% | 1018.3 hPa | 0 mm | - | 5 W/m² | - |
| 1777680919 | 11.67° C | 53% | 1017.9 hPa | 0 mm | - | 7 W/m² | - |
| 1777680616 | 12.22° C | 52% | 1017.9 hPa | 0 mm | - | 11 W/m² | - |
| 1777680315 | 12.22° C | 53% | 1017.9 hPa | 0 mm | - | 16 W/m² | - |
| 1777680011 | 12.22° C | 51% | 1017.3 hPa | 0 mm | - | 19 W/m² | - |
| 1777679707 | 12.22° C | 52% | 1017.3 hPa | 0 mm | - | 24 W/m² | - |
| 1777679403 | 12.78° C | 53% | 1017.3 hPa | 0 mm | - | 29 W/m² | - |
| 1777679098 | 12.78° C | 54% | 1017.6 hPa | 0 mm | - | 31 W/m² | - |
| 1777678797 | 12.78° C | 54% | 1017.6 hPa | 0 mm | - | 28 W/m² | - |
| 1777678495 | 12.78° C | 54% | 1017.6 hPa | 0 mm | - | 29 W/m² | - |
| 1777678190 | 12.78° C | 53% | 1017.3 hPa | 0 mm | - | 36 W/m² | - |
| 1777677888 | 12.78° C | 53% | 1017.3 hPa | 0 mm | - | 36 W/m² | - |
| 1777677585 | 12.78° C | 52% | 1017.3 hPa | 0 mm | - | 42 W/m² | - |
| 1777677283 | 13.33° C | 54% | 1017.3 hPa | 0 mm | - | 70 W/m² | - |
* Rain latest hour (hover to see other rain measurements)
** Current wind speed in m/s (hover to see current wind gust speed)